Weather History for Hollywood, FL

Change the Weather History Date:

Wednesday, June 26, 2013

  Actual Average (KFLL) Record (KFLL)
Temperature  
Mean Temperature 83 °F 83 °F  
Max Temperature 91 °F 89 °F 96 °F (1952)
Min Temperature 77 °F 78 °F 66 °F (1937)
Degree Days  
Heating Degree Days 0 0  
Month to date heating degree days 0  
Since 1 June heating degree days 0  
Since 1 July heating degree days 112  
Cooling Degree Days 18 18  
Month to date cooling degree days 465  
Year to date cooling degree days 1883  
Since 1 June cooling degree days 465  
Growing Degree Days 33 (Base 50)    
Moisture  
Dew Point 73 °F    
Average Humidity 73    
Maximum Humidity 90    
Minimum Humidity 50    
Precipitation  
Precipitation 0.20 in 0.35 in 3.09 in (1917)
Month to date precipitation 8.74  
Year to date precipitation 26.23  
Snow  
Snow 0.00 in - - ()
Month to date snowfall  
Since 1 June snowfall  
Since 1 July snowfall  
Snow Depth -    
Sea Level Pressure  
Sea Level Pressure 30.07 in    
Wind  
Wind Speed 7 mph (ESE)    
Max Wind Speed 15 mph    
Max Gust Speed 22 mph    
Visibility 10 miles    
Events Rain , Thunderstorm    
T = Trace of Precipitation, MM = Missing Value Source: NWS Daily Summary

Daily Weather History Graph

Daily Weather History Graph

Search for Another Location

Airport:

Trip Planner

Search our weather history database for the weather conditions in past years. The results will help you decide how hot, cold, wet, or windy it might be!

Date:

Astronomy

Jun. 26, 2013 Rise Set
Actual Time 6:31 AM EDT 8:16 PM EDT
Civil Twilight 6:05 AM EDT 8:42 PM EDT
Nautical Twilight 5:33 AM EDT 9:14 PM EDT
Astronomical Twilight 5:00 AM EDT 9:47 PM EDT
Moon 11:04 PM EDT (6/26) 9:59 AM EDT (6/26)
Length of Visible Light 14h 37m
Length of Day
13h 45m
Waning Gibbous, 85% of the Moon is Illuminated
Jun 26
Waning Gibbous
Jun 30
Last Quarter
Jul 8
New
Jul 15
First Quarter
Jul 22
Full

Hourly Weather History & Observations

Time (EDT) Temp. Heat Index Dew Point Humidity Pressure Visibility Wind Dir Wind Speed Gust Speed Precip Events Conditions
12:53 AM 82.0 °F 88.6 °F 75.0 °F 79% 30.09 in 10.0 mi ESE 5.8 mph - N/A   Mostly Cloudy
1:20 AM 82.4 °F 88.2 °F 73.4 °F 74% 30.08 in 10.0 mi ESE 6.9 mph - N/A   Mostly Cloudy
1:39 AM 82.4 °F 88.2 °F 73.4 °F 74% 30.08 in 10.0 mi ESE 5.8 mph - N/A Thunderstorm Scattered Clouds
1:53 AM 82.0 °F 87.9 °F 73.9 °F 76% 30.08 in 10.0 mi Calm Calm - N/A   Scattered Clouds
2:02 AM 80.6 °F 86.2 °F 75.2 °F 84% 30.08 in 10.0 mi ENE 9.2 mph - 0.12 in Rain , Thunderstorm Thunderstorms and Rain
2:14 AM 78.8 °F - 73.4 °F 83% 30.07 in 10.0 mi SE 13.8 mph - 0.17 in Rain Light Rain
2:31 AM 77.0 °F - 73.4 °F 89% 30.06 in 10.0 mi SE 3.5 mph - 0.19 in Rain , Thunderstorm Light Thunderstorms and Rain
2:51 AM 77.0 °F - 73.4 °F 89% 30.05 in 10.0 mi Calm Calm - 0.19 in   Scattered Clouds
2:53 AM 77.0 °F - 73.9 °F 90% 30.05 in 10.0 mi Calm Calm - 0.19 in   Scattered Clouds
3:53 AM 79.0 °F - 75.9 °F 90% 30.04 in 10.0 mi ESE 4.6 mph - 0.01 in   Clear
4:53 AM 78.1 °F - 73.0 °F 84% 30.04 in 10.0 mi SSE 9.2 mph - 0.00 in Rain Light Rain
5:53 AM 78.1 °F - 75.0 °F 90% 30.05 in 10.0 mi Calm Calm - 0.00 in   Clear
6:53 AM 78.1 °F - 75.0 °F 90% 30.07 in 10.0 mi ESE 5.8 mph - N/A   Clear
7:53 AM 81.0 °F 86.7 °F 75.0 °F 82% 30.06 in 10.0 mi ESE 6.9 mph - N/A   Clear
8:53 AM 82.9 °F 90.2 °F 75.0 °F 77% 30.08 in 10.0 mi SE 8.1 mph - N/A   Mostly Cloudy
9:15 AM 82.4 °F 88.2 °F 73.4 °F 74% 30.08 in 10.0 mi ESE 12.7 mph - N/A   Mostly Cloudy
9:53 AM 84.9 °F 92.1 °F 73.9 °F 69% 30.08 in 10.0 mi SE 12.7 mph - N/A   Clear
10:53 AM 86.0 °F 93.8 °F 73.9 °F 67% 30.08 in 10.0 mi ESE 11.5 mph 21.9 mph N/A   Partly Cloudy
11:53 AM 88.0 °F 94.7 °F 72.0 °F 59% 30.09 in 10.0 mi ESE 15.0 mph - N/A   Partly Cloudy
12:53 PM 89.1 °F 94.1 °F 70.0 °F 53% 30.10 in 10.0 mi ESE 13.8 mph 17.3 mph N/A   Clear
1:53 PM 89.1 °F 92.9 °F 68.0 °F 50% 30.09 in 10.0 mi SSE 12.7 mph - N/A   Clear
2:53 PM 89.1 °F 92.9 °F 68.0 °F 50% 30.07 in 10.0 mi East 10.4 mph 19.6 mph N/A   Clear
3:53 PM 89.1 °F 93.7 °F 69.1 °F 52% 30.07 in 10.0 mi SE 12.7 mph - N/A   Clear
4:53 PM 87.1 °F 93.6 °F 72.0 °F 61% 30.06 in 10.0 mi ESE 12.7 mph - N/A   Partly Cloudy
5:53 PM 84.9 °F 90.7 °F 72.0 °F 65% 30.06 in 10.0 mi ESE 11.5 mph - N/A   Partly Cloudy
6:53 PM 84.0 °F 89.6 °F 72.0 °F 67% 30.04 in 10.0 mi East 10.4 mph - N/A   Partly Cloudy
7:53 PM 82.9 °F 88.0 °F 72.0 °F 69% 30.05 in 10.0 mi ESE 11.5 mph - N/A   Clear
8:53 PM 82.9 °F 88.0 °F 72.0 °F 69% 30.08 in 10.0 mi ESE 6.9 mph - N/A   Clear
9:53 PM 82.9 °F 88.8 °F 73.0 °F 72% 30.08 in 10.0 mi SE 5.8 mph - N/A   Clear
10:53 PM 82.0 °F 87.4 °F 73.0 °F 74% 30.08 in 10.0 mi SE 5.8 mph - N/A   Clear
11:53 PM 82.0 °F 87.4 °F 73.0 °F 74% 30.06 in 10.0 mi ESE 5.8 mph - N/A   Clear